�������l�o���
Date,Time,MP-1(��Sv/h),MP-2(��Sv/h),MP-3(��Sv/h),MP-4(��Sv/h),MP-5(��Sv/h),MP-6(��Sv/h),MP-7(��Sv/h),MP-8(��Sv/h),����,����(m/s),���J
2021/08/15,00:00,0.560,0.816,0.534,0.988,0.678,0.354,0.596,0.566,�k�k��,7.2,�L
2021/08/15,00:10,0.561,0.817,0.537,0.992,0.677,0.354,0.597,0.567,�k�k��,8.2,�L
2021/08/15,00:20,0.560,0.819,0.535,0.991,0.677,0.354,0.597,0.566,�k�k��,8.9,�L
2021/08/15,00:30,0.557,0.817,0.536,0.989,0.675,0.354,0.596,0.566,�k�k��,7.5,�L
2021/08/15,00:40,0.559,0.816,0.534,0.985,0.674,0.353,0.596,0.564,�k�k��,8.8,�L
2021/08/15,00:50,0.558,0.818,0.536,0.990,0.676,0.353,0.597,0.566,�k�k��,9.6,�L
2021/08/15,01:00,0.559,0.816,0.534,0.988,0.677,0.355,0.597,0.566,�k�k��,9.0,�L
2021/08/15,01:10,0.560,0.815,0.534,0.990,0.676,0.355,0.598,0.566,�k�k��,8.8,�L
2021/08/15,01:20,0.554,0.811,0.534,0.985,0.675,0.354,0.596,0.566,�k�k��,8.6,�L
2021/08/15,01:30,0.555,0.813,0.533,0.983,0.674,0.353,0.597,0.565,�k�k��,7.9,�L
2021/08/15,01:40,0.559,0.812,0.535,0.984,0.675,0.353,0.596,0.566,�k�k��,7.8,�L
2021/08/15,01:50,0.559,0.816,0.534,0.985,0.674,0.354,0.596,0.566,�k�k��,9.0,�L
2021/08/15,02:00,0.558,0.814,0.535,0.988,0.675,0.355,0.595,0.565,�k��,9.0,�L
2021/08/15,02:10,0.556,0.812,0.535,0.985,0.675,0.355,0.596,0.565,�k�k��,8.3,�L
2021/08/15,02:20,0.559,0.813,0.535,0.984,0.676,0.354,0.597,0.565,�k�k��,8.0,�L
2021/08/15,02:30,0.559,0.817,0.536,0.988,0.677,0.355,0.597,0.565,�k�k��,8.5,�L
2021/08/15,02:40,0.560,0.816,0.536,0.988,0.678,0.354,0.597,0.566,�k�k��,8.3,�L
2021/08/15,02:50,0.561,0.818,0.535,0.992,0.677,0.352,0.598,0.567,�k�k��,7.9,�L
2021/08/15,03:00,0.561,0.816,0.537,0.992,0.678,0.352,0.597,0.566,�k�k��,7.4,�L
2021/08/15,03:10,0.561,0.819,0.536,0.992,0.679,0.352,0.597,0.566,�k�k��,9.0,�L
2021/08/15,03:20,0.561,0.817,0.535,0.997,0.678,0.352,0.597,0.567,�k�k��,8.2,�L
2021/08/15,03:30,0.559,0.817,0.533,0.995,0.678,0.352,0.598,0.567,�k�k��,8.7,�L
2021/08/15,03:40,0.561,0.815,0.535,0.996,0.677,0.352,0.596,0.566,�k�k��,7.5,�L
2021/08/15,03:50,0.562,0.816,0.534,0.995,0.679,0.353,0.596,0.564,�k�k��,7.8,�L
2021/08/15,04:00,0.559,0.816,0.534,0.997,0.679,0.352,0.597,0.566,�k�k��,7.6,�L
2021/08/15,04:10,0.561,0.816,0.535,0.997,0.679,0.353,0.598,0.567,�k�k��,8.1,�L
2021/08/15,04:20,0.560,0.816,0.535,0.997,0.679,0.353,0.599,0.565,�k�k��,8.2,�L
2021/08/15,04:30,0.558,0.815,0.533,0.997,0.678,0.351,0.596,0.565,�k�k��,7.5,�L
2021/08/15,04:40,0.559,0.815,0.534,0.996,0.679,0.351,0.598,0.566,�k�k��,7.7,�L
2021/08/15,04:50,0.559,0.815,0.535,0.994,0.679,0.353,0.596,0.566,�k�k��,7.7,�L
2021/08/15,05:00,0.558,0.814,0.535,0.994,0.679,0.353,0.596,0.565,�k�k��,8.0,�L
2021/08/15,05:10,0.560,0.813,0.536,0.994,0.679,0.356,0.597,0.565,�k�k��,9.0,�L
2021/08/15,05:20,0.559,0.814,0.534,0.994,0.680,0.354,0.596,0.567,�k�k��,7.6,�L
2021/08/15,05:30,0.558,0.813,0.535,0.993,0.679,0.353,0.596,0.565,�k,7.8,�L
2021/08/15,05:40,0.557,0.812,0.535,0.990,0.679,0.356,0.596,0.566,�k,7.7,�L
2021/08/15,05:50,0.557,0.812,0.535,0.990,0.679,0.354,0.596,0.563,�k,7.6,�L
2021/08/15,06:00,0.557,0.813,0.535,0.992,0.678,0.356,0.596,0.565,�k�k��,7.7,�L
2021/08/15,06:10,0.561,0.815,0.535,0.990,0.680,0.355,0.597,0.565,�k,7.8,�L
2021/08/15,06:20,0.560,0.817,0.537,0.994,0.681,0.355,0.597,0.565,�k,7.8,�L
2021/08/15,06:30,0.560,0.816,0.537,0.996,0.680,0.354,0.598,0.567,�k�k��,7.6,�L
2021/08/15,06:40,0.560,0.816,0.537,0.995,0.681,0.354,0.597,0.566,�k�k��,7.5,�L
2021/08/15,06:50,0.561,0.816,0.534,0.997,0.678,0.354,0.597,0.566,�k�k��,7.6,�L
2021/08/15,07:00,0.559,0.812,0.534,0.994,0.679,0.352,0.599,0.565,�k�k��,8.3,�L
2021/08/15,07:10,0.557,0.813,0.531,0.994,0.677,0.352,0.596,0.566,�k�k��,9.1,�L
2021/08/15,07:20,0.556,0.811,0.531,0.989,0.677,0.352,0.596,0.564,�k�k��,8.1,�L
2021/08/15,07:30,0.554,0.811,0.534,0.991,0.679,0.352,0.595,0.564,�k�k��,7.1,�L
2021/08/15,07:40,0.555,0.811,0.533,0.991,0.679,0.352,0.595,0.565,�k�k��,8.2,�L
2021/08/15,07:50,0.556,0.809,0.531,0.989,0.677,0.352,0.594,0.564,�k�k��,8.3,�L
2021/08/15,08:00,0.555,0.812,0.534,0.989,0.678,0.352,0.596,0.566,�k�k��,8.2,�L
2021/08/15,08:10,0.556,0.814,0.534,0.993,0.680,0.352,0.598,0.564,�k�k��,8.6,�L
2021/08/15,08:20,0.560,0.812,0.534,0.997,0.681,0.352,0.596,0.565,�k�k��,8.7,�L
2021/08/15,08:30,0.559,0.813,0.533,0.997,0.680,0.351,0.597,0.564,�k�k��,8.6,�L
2021/08/15,08:40,0.557,0.812,0.533,0.994,0.681,0.352,0.597,0.565,�k�k��,8.7,�L
2021/08/15,08:50,0.559,0.813,0.534,0.996,0.680,0.351,0.597,0.566,�k�k��,7.9,�L
2021/08/15,09:00,0.559,0.813,0.534,0.995,0.679,0.352,0.597,0.566,�k�k��,8.0,�L
2021/08/15,09:10,0.557,0.814,0.533,0.994,0.680,0.351,0.596,0.565,�k�k��,8.7,�L
2021/08/15,09:20,0.559,0.814,0.532,0.997,0.681,0.353,0.597,0.566,�k�k��,9.1,�L
2021/08/15,09:30,0.560,0.815,0.532,0.997,0.683,0.351,0.597,0.567,�k�k��,8.7,�L
2021/08/15,09:40,0.560,0.817,0.534,0.998,0.682,0.352,0.598,0.567,�k�k��,8.7,�L
2021/08/15,09:50,0.560,0.819,0.535,1.002,0.683,0.352,0.598,0.567,�k�k��,8.5,�L
2021/08/15,10:00,0.562,0.817,0.532,1.001,0.683,0.351,0.597,0.566,�k�k��,7.4,�L
2021/08/15,10:10,0.561,0.817,0.535,1.003,0.681,0.352,0.597,0.566,�k�k��,7.9,�L
2021/08/15,10:20,0.561,0.818,0.535,1.002,0.682,0.353,0.600,0.567,�k�k��,7.0,�L
2021/08/15,10:30,0.559,0.818,0.534,1.004,0.683,0.352,0.598,0.568,�k�k��,7.3,�L
2021/08/15,10:40,0.562,0.816,0.533,1.004,0.682,0.351,0.600,0.567,�k�k��,8.1,�L
2021/08/15,10:50,0.560,0.818,0.534,1.006,0.685,0.353,0.597,0.569,�k�k��,7.6,�L
2021/08/15,11:00,0.562,0.819,0.535,1.005,0.684,0.353,0.598,0.568,�k�k��,7.7,�L
2021/08/15,11:10,0.561,0.819,0.533,1.004,0.686,0.352,0.600,0.566,�k�k��,7.7,�L
2021/08/15,11:20,0.561,0.818,0.533,1.007,0.687,0.353,0.599,0.568,�k�k��,7.9,�L
2021/08/15,11:30,0.560,0.819,0.532,1.008,0.686,0.351,0.599,0.567,�k�k��,7.4,�L
2021/08/15,11:40,0.561,0.819,0.533,1.006,0.687,0.353,0.599,0.566,�k�k��,7.7,�L
2021/08/15,11:50,0.560,0.817,0.534,1.009,0.687,0.352,0.599,0.567,�k�k��,7.0,�L
2021/08/15,12:00,0.560,0.817,0.533,1.009,0.686,0.351,0.600,0.566,�k�k��,7.6,�L
2021/08/15,12:10,0.560,0.817,0.532,1.008,0.686,0.351,0.601,0.567,�k�k��,7.8,�L
2021/08/15,12:20,0.558,0.815,0.532,1.007,0.685,0.353,0.600,0.568,�k�k��,6.8,�L
2021/08/15,12:30,0.558,0.816,0.533,1.007,0.684,0.352,0.600,0.567,�k�k��,7.4,�L
2021/08/15,12:40,0.557,0.815,0.532,1.005,0.685,0.351,0.600,0.566,�k�k��,8.1,�L
2021/08/15,12:50,0.559,0.814,0.530,1.005,0.685,0.351,0.600,0.566,�k�k��,7.2,�L
2021/08/15,13:00,0.558,0.814,0.530,1.004,0.686,0.350,0.600,0.565,�k�k��,8.1,�L
2021/08/15,13:10,0.558,0.815,0.531,1.006,0.688,0.350,0.599,0.565,�k�k��,8.6,�L
2021/08/15,13:20,0.557,0.815,0.531,1.005,0.686,0.351,0.600,0.569,�k�k��,8.0,�L
2021/08/15,13:30,0.560,0.816,0.531,1.004,0.687,0.352,0.601,0.565,�k�k��,8.1,�L
2021/08/15,13:40,0.557,0.816,0.530,1.006,0.687,0.352,0.598,0.566,�k�k��,6.9,�L
2021/08/15,13:50,0.558,0.815,0.531,1.007,0.689,0.350,0.600,0.567,�k,6.7,�L
2021/08/15,14:00,0.558,0.813,0.533,1.006,0.688,0.351,0.599,0.567,�k,7.5,�L
2021/08/15,14:10,0.558,0.814,0.531,1.003,0.687,0.354,0.601,0.568,�k,8.1,�L
2021/08/15,14:20,0.560,0.816,0.530,1.004,0.688,0.351,0.600,0.565,�k,8.9,�L
2021/08/15,14:30,0.558,0.814,0.532,1.006,0.687,0.350,0.600,0.567,�k,8.7,�L
2021/08/15,14:40,0.561,0.814,0.530,1.007,0.687,0.350,0.599,0.566,�k,8.3,�L
2021/08/15,14:50,0.559,0.817,0.532,1.004,0.688,0.352,0.601,0.566,�k�k��,7.3,�L
2021/08/15,15:00,0.558,0.815,0.531,1.007,0.689,0.350,0.600,0.566,�k,6.4,�L
2021/08/15,15:10,0.558,0.816,0.529,1.005,0.688,0.350,0.598,0.567,�k,9.1,�L
2021/08/15,15:20,0.561,0.816,0.532,1.004,0.688,0.352,0.600,0.566,�k,7.6,�L
2021/08/15,15:30,0.560,0.816,0.532,1.007,0.689,0.352,0.600,0.566,�k,9.2,�L
2021/08/15,15:40,0.562,0.816,0.532,1.005,0.688,0.351,0.600,0.565,�k,7.1,�L
2021/08/15,15:50,0.560,0.816,0.532,1.004,0.689,0.351,0.599,0.565,�k,6.8,�L
2021/08/15,16:00,0.561,0.815,0.532,1.006,0.688,0.350,0.599,0.566,�k,8.3,�L
2021/08/15,16:10,0.560,0.816,0.531,1.005,0.689,0.350,0.600,0.568,�k,7.4,�L
2021/08/15,16:20,0.559,0.817,0.530,1.007,0.688,0.351,0.599,0.568,�k,7.3,�L
2021/08/15,16:30,0.559,0.817,0.531,1.008,0.691,0.350,0.601,0.567,�k,7.1,�L
2021/08/15,16:40,0.561,0.817,0.531,1.009,0.690,0.352,0.601,0.566,�k,7.7,�L
2021/08/15,16:50,0.561,0.818,0.532,1.009,0.689,0.350,0.602,0.565,�k,9.0,�L
2021/08/15,17:00,0.560,0.818,0.531,1.010,0.691,0.352,0.600,0.567,�k,6.9,�L
2021/08/15,17:10,0.561,0.817,0.530,1.009,0.690,0.351,0.601,0.567,�k,8.2,�L
2021/08/15,17:20,0.560,0.817,0.530,1.009,0.689,0.350,0.600,0.567,�k,7.7,�L
2021/08/15,17:30,0.560,0.816,0.529,1.010,0.689,0.351,0.600,0.566,�k,7.5,�L
2021/08/15,17:40,0.560,0.814,0.528,1.008,0.689,0.349,0.599,0.565,�k,7.8,�L
2021/08/15,17:50,0.561,0.817,0.530,1.006,0.688,0.351,0.602,0.566,�k,7.4,�L
2021/08/15,18:00,0.560,0.816,0.532,1.009,0.689,0.349,0.600,0.566,�k,6.6,�L
2021/08/15,18:10,0.562,0.816,0.531,1.009,0.688,0.350,0.600,0.567,�k,6.6,�L
2021/08/15,18:20,0.559,0.817,0.532,1.008,0.690,0.349,0.599,0.565,�k,7.7,�L
2021/08/15,18:30,0.558,0.817,0.530,1.010,0.688,0.350,0.599,0.566,�k,7.4,�L
2021/08/15,18:40,0.560,0.819,0.533,1.009,0.688,0.351,0.599,0.566,�k,7.6,�L
2021/08/15,18:50,0.561,0.819,0.529,1.009,0.689,0.350,0.601,0.567,�k,7.6,�L
2021/08/15,19:00,0.559,0.817,0.531,1.011,0.689,0.349,0.600,0.566,�k,8.4,�L
2021/08/15,19:10,0.561,0.818,0.531,1.009,0.690,0.350,0.600,0.567,�k,6.9,�L
2021/08/15,19:20,0.562,0.820,0.530,1.010,0.691,0.349,0.600,0.568,�k,7.1,�L
2021/08/15,19:30,0.561,0.821,0.531,1.013,0.690,0.349,0.600,0.567,�k,6.2,�L
2021/08/15,19:40,0.561,0.819,0.532,1.013,0.692,0.350,0.601,0.567,�k,5.2,�L
2021/08/15,19:50,0.561,0.820,0.532,1.015,0.691,0.350,0.601,0.567,�k,6.4,�L
2021/08/15,20:00,0.561,0.820,0.531,1.017,0.693,0.350,0.603,0.567,�k,6.4,�L
2021/08/15,20:10,0.562,0.822,0.532,1.015,0.693,0.350,0.602,0.567,�k,6.1,�L
2021/08/15,20:20,0.563,0.821,0.532,1.015,0.692,0.352,0.601,0.567,�k�k��,6.5,�L
2021/08/15,20:30,0.564,0.822,0.535,1.015,0.692,0.351,0.602,0.569,�k,5.9,�L
2021/08/15,20:40,0.564,0.822,0.534,1.014,0.694,0.351,0.601,0.568,�k�k��,5.5,�L
2021/08/15,20:50,0.563,0.823,0.535,1.018,0.693,0.352,0.603,0.568,�k�k��,5.8,��
2021/08/15,21:00,0.562,0.826,0.534,1.014,0.694,0.352,0.602,0.569,�k�k��,6.2,��
2021/08/15,21:10,0.566,0.826,0.534,1.018,0.696,0.353,0.602,0.570,�k�k��,6.5,�L
2021/08/15,21:20,0.563,0.828,0.534,1.017,0.698,0.351,0.603,0.569,�k,7.1,�L
2021/08/15,21:30,0.564,0.828,0.536,1.021,0.695,0.351,0.602,0.569,�k,7.6,�L
2021/08/15,21:40,0.562,0.826,0.535,1.019,0.695,0.352,0.603,0.569,�k,5.9,�L
2021/08/15,21:50,0.563,0.824,0.535,1.019,0.696,0.352,0.602,0.569,�k�k��,7.2,�L
2021/08/15,22:00,0.565,0.827,0.534,1.020,0.698,0.352,0.602,0.566,�k�k��,6.6,��
2021/08/15,22:10,0.563,0.827,0.535,1.019,0.696,0.352,0.604,0.569,�k�k��,6.3,��
2021/08/15,22:20,0.563,0.827,0.536,1.018,0.696,0.351,0.601,0.568,�k�k��,6.0,��
2021/08/15,22:30,0.566,0.828,0.535,1.019,0.696,0.352,0.604,0.569,�k�k��,5.9,��
2021/08/15,22:40,0.566,0.827,0.536,1.022,0.697,0.353,0.602,0.570,�k,5.9,��
2021/08/15,22:50,0.566,0.829,0.535,1.022,0.697,0.353,0.603,0.570,�k�k��,6.7,�L
2021/08/15,23:00,0.566,0.829,0.534,1.021,0.699,0.353,0.604,0.570,�k,6.0,�L
2021/08/15,23:10,0.565,0.829,0.535,1.023,0.698,0.352,0.604,0.569,�k�k��,6.3,�L
2021/08/15,23:20,0.565,0.828,0.535,1.026,0.699,0.352,0.603,0.568,�k,6.6,�L
2021/08/15,23:30,0.564,0.830,0.536,1.023,0.700,0.352,0.603,0.570,�k,6.5,�L
2021/08/15,23:40,0.565,0.828,0.535,1.022,0.698,0.353,0.604,0.570,�k,6.4,�L
2021/08/15,23:50,0.567,0.831,0.537,1.022,0.698,0.352,0.603,0.570,�k�k��,6.0,��
